Regional Weather Roundup
Issued by NWS Newport/Morehead, NC

Current Version | Previous Version | Graphics & Text | Print | Product List | Glossary On
Versions: 1 2 3 4 5 6 7 8 9 10 11 12 13 14 15 16 17 18 19 20 21 22 23 24 25 26 27 28 29 30 31 32 33 34 35 36 37 38 39 40 41 42 43 44 45 46 47 48 49 50
992 ASUS42 KMHX 241125 RWRMHX WEATHER ROUNDUP FOR EASTERN NORTH CAROLINA NATIONAL WEATHER SERVICE NEWPORT/MOREHEAD CITY NC 700 AM EDT TUE MAY 24 2016 NOTE: "FAIR" INDICATES FEW OR NO CLOUDS BELOW 12,000 FEET WITH NO SIGNIFICANT WEATHER AND/OR OBSTRUCTIONS TO VISIBILITY NCZ015>017-031-032-045>047-102-103-241200- NORTH COAST CITY SKY/WX TMP DP RH WIND PRES REMARKS EDENTON SUNNY N/A N/A N/A W8 30.06R ELIZABETH CITY SUNNY 56 53 90 W7 30.03R KITTY HAWK SUNNY 62 56 79 W7 30.02R MANTEO SUNNY 59 56 92 W7 30.04R $$ NCZ045>047-081-094-103-104-241200- CENTRAL COAST CITY SKY/WX TMP DP RH WIND PRES REMARKS FRISCO SUNNY 64 53 67 W9G20 30.05R $$ NCZ095-097-098-100-101-241200- SOUTHERN COAST CITY SKY/WX TMP DP RH WIND PRES REMARKS BEAUFORT SUNNY 58 52 80 MISG 30.07R CEDAR ISLAND NOT AVBL JACKSONVILLE SUNNY 54 51 90 W3 30.07R PINEY ISLAND NOT AVBL WILMINGTON CLEAR 54 53 97 CALM 30.09R $$ NCZ011>013-027>030-043-044-078>080-089-090>093-098-241200- COASTAL PLAIN CITY SKY/WX TMP DP RH WIND PRES REMARKS AHOSKIE SUNNY 53 51 94 CALM 30.05R CLINTON PTCLDY 54 53 99 CALM 30.09R ELIZABETHTOWN PTCLDY 56 53 90 W3 30.09R GOLDSBORO SUNNY 53 53 100 SW1 30.06R GREENVILLE SUNNY 55 52 88 W3 30.08R HAVELOCK SUNNY 54 52 93 CALM 30.08R KENANSVILLE SUNNY 52 52 98 CALM 30.10R KINSTON SUNNY 55 54 94 CALM 30.08R NEW BERN SUNNY 55 51 86 SW5 30.08R RICHLANDS SUNNY 53 52 96 W3 30.09R ROCKY MOUNT SUNNY 53 51 93 S3 30.06R WASHINGTON SUNNY 56 52 86 CALM 30.07R WHITEVILLE PTCLDY 54 52 93 CALM 30.10R $$ AMZ130-135-150-152-154-156-158-170-250-252-270-ANZ085-086-088-633-658-670-241200- MARINE OBSERVATIONS STATION/POSITION TIME TEMP WIND PRES WAVE SWELL AIR SEA DIR/SP/G HT/PER HT/PER (UTC) (F) (DEG/KT/KT) (MB) (FT/S) (FT/S) CHESAPEAKE LIGHT 1100 61 270/ 11/ 12 1016.4 64 E VA BEACH 1050 58 56 250/ 8/ 10 1015.3 5/11 5/11 DUCK 1100 60 62 250/ 8/ 10 1016.1 2 E DUCK 1011 62 N/A 4/ 8 2/11 OREGON INLET 1100 60 64 260/ 7/ 11 1016.9 13E OREGON INLT 1100 61 N/A 5/10 5/10 HATTERAS CG 1100 64 67 270/ 14/ 18 1017.2 DIAMOND BUOY 1050 65 68 290/ 12/ 16 1017.3 4/11 3/11 CAPE LOOKOUT 1100 65 290/ 10/ 12 1017.7 BEAUFORT LAB 1100 60 67 300/ 6/ 7 1017.4 30 SE NEW RVR IN 1025 73 N/A 2/ 9 27 SE WRIGHTSVLE 1108 67 72 330/ 8/ 12 1018.7 5 SE WRIGHTSVLE 1108 64 71 310/ 6/ 8 1019.3 225 S CAPE HAT 1050 73 77 270/ 12/ 16 1017.3 4/ 6 3/ 6 41 SE CHARLESTON 1050 70 75 20/ 6/ 8 1019.1 2/ 8 2/ 8 $$

USA.gov is the U.S. government's official web portal to all federal, state and local government web resources and services.